Regional Weather Roundup
Issued by NWS

Home | Current Version | Previous Version | Text Only | Print | Product List | Glossary On
Versions: 1 2 3 4 5 6 7 8 9 10 11 12 13 14 15 16 17 18 19 20 21 22 23 24 25 26 27 28 29 30 31 32 33 34 35 36 37 38 39 40 41 42 43 44 45 46 47 48 49 50
000
ASUS43 KLMK 220510
RWRKY
KENTUCKY REGIONAL WEATHER ROUNDUP
NATIONAL WEATHER SERVICE LOUISVILLE KY
1200 AM EST MON DEC 22 2014

NOTE "FAIR" INDICATES FEW OR NO CLOUDS BELOW 12,000 FEET
WITH NO SIGNIFICANT WEATHER AND/OR OBSTRUCTIONS TO VISIBILITY.

KYZ001>023-026-027-061>063-070>075-220600-
WESTERN AND SOUTH CENTRAL KENTUCKY

CITY           SKY/WX    TMP DP  RH WIND       PRES   REMARKS
PADUCAH        CLOUDY    38  31  76 E7        29.97F WCI  33
HENDERSON      PTCLDY    34  27  75 E5        30.02F WCI  30
OWENSBORO      CLEAR     34  28  79 E7        30.03F WCI  28
HOPKINSVILLE   MOCLDY    39  32  75 E5        29.99F
BOWLING GREEN  MOCLDY    36  28  73 NE5       30.03F WCI  32
GLASGOW        PTCLDY    36  28  75 CALM      30.04S
$$

KYZ024-025-028>034-038-045-046-053-220600-
NORTH CENTRAL KENTUCKY

CITY           SKY/WX    TMP DP  RH WIND       PRES   REMARKS
LOUISVILLE/SDF CLOUDY    34  28  79 CALM      30.07F
LOUISVILLE/LOU CLOUDY    35  28  75 E3        30.08F
FORT KNOX      MOCLDY    32  28  84 NE6       30.03F WCI  27
$$

KYZ035>037-039>044-047>052-055>060-089>105-220600-
NORTHEAST KENTUCKY

CITY           SKY/WX    TMP DP  RH WIND       PRES   REMARKS
LEXINGTON      PTCLDY    34  27  75 E8        30.08F WCI  27
COVINGTON      PTCLDY    29  22  75 E6        30.10F WCI  23
FRANKFORT      CLEAR     29  24  82 E6        30.07F WCI  23
$$

KYZ054-064>069-076>088-106>120-220600-
SOUTHEAST KENTUCKY

CITY           SKY/WX    TMP DP  RH WIND       PRES   REMARKS
JACKSON        CLOUDY    37  26  64 E5        30.10F WCI  33
LONDON         CLOUDY    42  29  59 CALM      30.08F
SOMERSET       CLOUDY    37  28  70 CALM      30.08F
MIDDLESBORO    CLOUDY    38  35  89 CALM      30.11S
MONTICELLO     CLOUDY    39  33  79 CALM      30.09F
$$



USA.gov is the U.S. government's official web portal to all federal, state and local government web resources and services.